Regional Weather Roundup
Issued by NWS

Home | Current Version | Previous Version | Graphics & Text | Print | Product List | Glossary On
Versions: 1 2 3 4 5 6 7 8 9 10 11 12 13 14 15 16 17 18 19 20 21 22 23 24 25 26 27
000
ASUS45 KTFX 260310
RWRMT
MONTANA REGIONAL WEATHER ROUNDUP
NATIONAL WEATHER SERVICE GREAT FALLS MT
900 PM MDT SAT MAR 25 2017

NOTE: "FAIR" INDICATES FEW OR NO CLOUDS BELOW 12000 FEET WITH NO
SIGNIFICANT WEATHER AND/OR OBSTRUCTIONS TO VISIBILITY.

MTZ001>007-043-260400-
WEST OF THE DIVIDE

CITY           SKY/WX    TMP DP  RH WIND       PRES   REMARKS
KALISPELL      MOCLDY    41  28  60 W9        29.97R
MISSOULA       MOCLDY    40  32  73 NW7       30.01R
BUTTE          CLOUDY    39  20  46 NW6       29.94R
MULLAN PASS    CLOUDY    27  25  92 VRB5      29.94S
ANACONDA         N/A     39  27  60 W15       29.94R WCI  31
DEER LODGE       N/A     39  28  65 NW10      29.97R
EUREKA           N/A     41  27  56 SE6       29.95S
HAMILTON         N/A     45  28  53 SW6       30.00R
RONAN            N/A     41  34  76 SE3       30.03S
$$

MTZ008-052>055-260400-
SOUTHWEST MONTANA

CITY           SKY/WX    TMP DP  RH WIND       PRES   REMARKS
BOZEMAN        CLOUDY    45  28  51 CALM      29.92R
DILLON         CLOUDY    41  18  39 CALM      29.91R
W YELLOWSTONE  CLOUDY    32  28  86 W3        29.97R
ENNIS          CLOUDY    41  30  65 S8        29.97R
THREE FORKS      N/A     46  46 100 W5        29.93R
TWIN BRIDGES     N/A     40  23  50 NW6       29.92R
$$

MTZ009-010-012-014-046-048-049-054-260400-
EAST SLOPES AND CENTRAL MONTANA

CITY           SKY/WX    TMP DP  RH WIND       PRES   REMARKS
CUT BANK       CLEAR     35  25  66 W12       29.91R WCI  27
GREAT FALLS    CLEAR     35  20  54 SW9       29.90R WCI  28
MALMSTROM AFB  CLEAR     47  20  34 W8        29.91R
HELENA         CLOUDY    45  25  45 W9        29.92R
AUGUSTA        MOCLDY    38  25  60 W15G24    29.91R WCI  29
BOWMANS CRNR     N/A     37  21  53 W12       29.89S WCI  29
CHOTEAU          N/A     39  23  52 W6        29.93R
FAIRFIELD        N/A     40  22  50 W13       29.91R
POWER            N/A     35  22  57 W7        29.90R WCI  30
RAYNESFORD       N/A     40  20  46 CALM      29.91R
$$

MTZ011-013-016-021-045-047-050-051-260400-
NORTH CENTRAL MONTANA

CITY           SKY/WX    TMP DP  RH WIND       PRES   REMARKS
HAVRE          CLEAR     46  23  40 CALM      29.87R
LEWISTOWN      CLOUDY    41  22  46 S3        29.91R
N BAR RANCH    MOCLDY    39  21  48 SW5       29.93R
CHINOOK          N/A     45  21  39 SW7       29.88R
DENTON         CLOUDY    47  21  35 SE6       29.87R
FORT BENTON      N/A     43  19  39 MISG      29.90R
GEYSER           N/A     38  21  51 SW14      29.90R WCI  30
GRASS RANGE      N/A     42  22  44 W9        29.87R
STANFORD       MOCLDY    42  23  48 W3        29.91R
WINIFRED       MOCLDY    48  18  31 CALM      29.89R
$$

MTZ017>020-022>027-061-062-260400-
NORTHEAST MONTANA

CITY           SKY/WX    TMP DP  RH WIND       PRES   REMARKS
GLASGOW        CLOUDY    47  29  49 SE8       29.88R
JORDAN           N/A     47  29  49 S6        29.89R
SIDNEY         CLOUDY    49  30  48 CALM      29.89R
WOLF POINT     CLOUDY    47  31  53 CALM      29.89R
MALTA          CLOUDY    45  28  53 CALM      29.87S
PLENTYWOOD       N/A     45  32  61 NE7       29.88S
POPLAR           N/A     48  30  49 CALM      29.90R
$$

MTZ028>42-056>058-260400-
SOUTHCENTRAL AND SOUTHEAST MONTANA

CITY           SKY/WX    TMP DP  RH WIND       PRES   REMARKS
BAKER          CLOUDY    47  33  58 NW13      29.92R
BILLINGS       CLOUDY    48  28  46 S7        29.91R
LIVINGSTON     PTCLDY    37  30  75 SW5       29.92R
MILES CITY     CLOUDY    50  33  52 S6        29.90S
BIG TIMBER     CLEAR     37  34  87 W6        29.95R
FORSYTH          N/A     48  34  57 CALM      29.91R
HARLOWTON      MOCLDY    42  32  66 W9        29.91R
LAUREL           N/A     46  29  52 CALM      29.91F
$$

REGIONAL REPORTS...DAKOTAS

CITY           SKY/WX    TMP DP  RH WIND       PRES   REMARKS
WILLISTON      CLOUDY    49  31  49 CALM      29.88R
MINOT          CLOUDY    48  35  60 S8        29.89R
DICKINSON      CLOUDY    49  27  42 N8        29.88R
BEACH            N/A    N/A N/A N/A MISG        N/A
TIOGA          CLOUDY    43  36  75 W6G12     29.90R
WATFORD CITY     N/A     48  34  57 SW3       29.88S
BISMARCK       CLOUDY    46  35  65 SE7       29.93R
GRAND FORKS    PTCLDY    33  33 100 S6        30.01F WCI  28
FARGO          CLOUDY    33  30  88 CALM      30.03S
BUFFALO SD       N/A     51  32  48 N16       29.81F
RAPID CITY     CLOUDY    53  34  48 NW12      29.81S
$$

REGIONAL REPORTS...WYOMING/IDAHO/WASHINGTON

CITY           SKY/WX    TMP DP  RH WIND       PRES   REMARKS
GILLETTE       CLOUDY    45  34  65 N8        29.88R
SHERIDAN       LGT RAIN  41  38  89 W7        29.95R
BUFFALO WY     LGT RAIN  40  36  86 NW16      29.93R
CODY           CLOUDY    42  29  59 NW9       29.95R
YELLOWSTONE LA   N/A     26  21  81 CALM      29.98R
IDAHO FALLS    CLEAR     44  29  55 S10       29.96R
SALMON         MOCLDY    46  23  39 NE5       29.93R
BOISE          PTCLDY    51  27  39 CALM      29.99F
SPOKANE        PTCLDY    43  33  68 S7          N/A
$$

REGIONAL REPORTS...ALBERTA

CITY           SKY/WX    TMP DP  RH WIND       PRES   REMARKS
EDMONTON       CLEAR     36  30  80 CALM      29.75R
CALGARY        PTCLDY    43  10  26 W15G24    29.76R
LETHBRIDGE     CLEAR     41  19  42 SW17      29.84R
MEDICINE HAT   CLEAR     43  21  42 W12       29.82R
WATERTON GATE    N/A     37  16  41 SW13G22     N/A  WCI  29
CARDSTON         N/A     37  21  52 W10G17      N/A  WCI  30
MILK RIVER       N/A     41  23  48 W16G22      N/A
ONEFOUR          N/A     37  23  56 W7          N/A
$$

REGIONAL REPORTS...SASKATCHEWAN

CITY           SKY/WX    TMP DP  RH WIND       PRES   REMARKS
SWIFT CURRENT  CLOUDY    41  28  60 SW13      29.81S
REGINA         MOCLDY    41  34  75 SE3       29.87R
SASKATOON      PTCLDY    28  28 100 E7        29.86R WCI  21
VAL MARIE        N/A     37  30  75 SW1         N/A
ROCKGLEN         N/A     45  25  45 NE1         N/A
ASSINIBOIA       N/A     30  27  86 SE1         N/A
$$




USA.gov is the U.S. government's official web portal to all federal, state and local government web resources and services.